SL-24 R/B, 40047

Orbit data source: Space-Track

SL-24 R/B, 40047 is space debris in SSO originally from a launch on Thu, 19 Jun 2014 UTC launched from the Orenburg, Russia (OREN). Debris objects in space refer to the collection of defunct objects orbiting the Earth. Examples of debris include non-operational satellites, rocket bodies, and fragments generated from explosions, collisions, or faulty payload assembly.

Loading next visibility...
SL-24 R/B details
Identifier
40047, 2014-033AP
Orbit
SSO
Last TLE update20 hours ago
Origin
Flag of CISKosmotras (CIS)
ManufacturerYuzhnoe
MissionSpacecraft
Bus & Motor15A18-BR, Unknown motor
Mass~1,000 kg wet, ~1,000 kg dry
Launch date (UTC)
2014-06-19 (11 years ago)
Launch vehicleUnknown
Launch site
Orenburg, Russia (OREN)
Object type
Payload
Rocket body
Debris
Shape & HBRCyl, 3 m
Radar Cross Section10.603 m², Large (>1 m²)

Expand to show TLE details & history

TLE from 20 hours ago
0 SL-24 R/B
1 40047U 14033AP  25044.78523778  .00000059  00000-0  40696-4 0  9991
2 40047  97.8972 348.7068 0568425 163.9616 198.0386 13.61823196529570
Epoch: 2025-02-13T18:50Z
Definitive object data (Epoch: 2025-02-13T18:50:44.544Z)
Latitude0.00001°
Longitude-78.03517°
Altitude1,434.497 km
Speed6.947 km/s
True Right ascension23h 14m 49s
True Declination0° 00' 00"
Sunlit
Object was in daylight at TLE epoch
Visualization TLE readout
Latitude60.81101°
Longitude116.94156°
Altitude722.73 km
Speed7.659 km/s
Apparent Right ascension08h 04m 45s
Apparent Declination21° 15' 00"
Sunlit
Object is in full shadow
Visualization observer readout
Local Sidereal Time17:29:00
Azimuth321.756° NNW
Elevation-18.873°
Doppler factor1
Orbital elements
Apogee altitude1,447.145 km
Perigee altitude605.376 km
Semi-major axis7,404.398 km
Eccentricity0.0568425
Inclination97.8972°
RAAN348.7068°
Arg. of periapsis163.9616°
True anomaly196.14987°
Mean anomaly198.0386°
Eccentric anomaly197.08194°
Mean motion3.4065 °/min
BSTAR0.000040696
Orbital period105.68 mins
Loading maneuver chart data...
Loading historical data...
Loading historical data...
Loading historical data...
Loading historical data...
Loading historical data...
Loading historical data...
Loading historical data...

SL-24 R/B Visibility forecast

Observer location: undefined°, undefined

Span
Click to sort rows by Start time (UTC) header in descending order
Start Az.
Max El. time (UTC)
Max El. Az.
Max El.
End time (UTC)
End Az.
12 mins2025-02-14 19:38:58.796Z148.13° SSE2025-02-14 19:44:58.796Z84.359° E41.068°2025-02-14 19:50:58.796Z357.376° N
10 mins2025-02-14 21:24:58.796Z219.639° SW2025-02-14 21:29:58.796Z267.542° W24.033°2025-02-14 21:34:58.796Z317.471° NNW
6 mins2025-02-15 08:30:58.796Z35.365° NE2025-02-15 08:33:58.796Z101.992° ESE32.543°2025-02-15 08:36:58.796Z162.929° S
|